Voltar ao catálogo

ONEWEB-0051

AtivoComunicaçõesPO
NORAD 45155·PAYLOAD·🇬🇧 United Kingdom

Lançado Feb 6, 2020 de Baikonur Cosmodrome

Loading…

Próximas Passagens (próximas 24 horas)

TLE

AtualizadoSource: CelesTrak SupGP

Época: Sep 15, 2026, 04:48 UTC

1 45155C 20008AA  26258.20014306  .00002991  00000+0  84488-2 0  2581
2 45155  87.8982   3.1724 0001788 101.7957 296.0213 13.11419595    18

Acompanhe ONEWEB-0051 em tempo real com AllMySat

Download on the App Store